TimeCST,TemperatureF,Dew PointF,Humidity,Sea Level PressureIn,VisibilityMPH,Wind Direction,Wind SpeedMPH,Gust SpeedMPH,PrecipitationIn,Events,Conditions,WindDirDegrees,DateUTC
12:53 AM,57.0,50.0,77,30.08,10.0,SSE,9.2,-,N/A,,Clear,150,2014-01-13 06:53:00
1:53 AM,57.0,51.1,81,30.05,10.0,SSE,12.7,-,N/A,,Clear,150,2014-01-13 07:53:00
2:53 AM,59.0,51.1,75,30.04,10.0,SSE,12.7,-,N/A,,Clear,150,2014-01-13 08:53:00
3:53 AM,59.0,52.0,78,30.04,10.0,SSE,11.5,-,N/A,,Clear,160,2014-01-13 09:53:00
4:53 AM,59.0,53.1,81,30.05,10.0,SSE,6.9,-,N/A,,Clear,160,2014-01-13 10:53:00
5:19 AM,57.9,53.1,84,30.05,10.0,South,5.8,-,N/A,,Mostly Cloudy,190,2014-01-13 11:19:00
5:53 AM,57.9,53.1,84,30.04,10.0,SSE,4.6,-,N/A,,Mostly Cloudy,160,2014-01-13 11:53:00
6:53 AM,59.0,54.0,83,30.04,10.0,Calm,Calm,-,N/A,,Overcast,0,2014-01-13 12:53:00
7:53 AM,60.1,55.0,83,30.06,10.0,South,8.1,-,0.00,Rain,Light Rain,170,2014-01-13 13:53:00
8:53 AM,60.1,55.9,86,30.05,8.0,SSE,9.2,-,0.03,Rain,Light Rain,160,2014-01-13 14:53:00
9:53 AM,60.1,57.0,90,30.03,6.0,SSE,10.4,-,0.08,Rain-Thunderstorm,Light Rain,160,2014-01-13 15:53:00
10:04 AM,60.1,57.9,93,30.03,3.0,South,5.8,-,0.06,Rain-Thunderstorm,Rain,170,2014-01-13 16:04:00
10:53 AM,60.1,57.0,90,29.98,3.0,SE,12.7,-,0.18,Rain-Thunderstorm,Light Rain,140,2014-01-13 16:53:00
11:04 AM,61.0,57.9,90,29.98,10.0,SE,15.0,-,0.00,Rain,Light Rain,140,2014-01-13 17:04:00
11:22 AM,61.0,57.9,90,29.97,3.0,SSE,11.5,-,0.01,Rain,Light Rain,160,2014-01-13 17:22:00
11:38 AM,61.0,59.0,93,29.96,1.8,SSE,6.9,-,0.08,Rain,Heavy Rain,150,2014-01-13 17:38:00
11:53 AM,61.0,59.0,93,29.95,2.0,SSE,11.5,-,0.10,Rain,Light Rain,150,2014-01-13 17:53:00
12:00 PM,61.0,57.9,90,29.94,2.0,SSE,8.1,-,0.01,Rain,Light Rain,160,2014-01-13 18:00:00
12:53 PM,59.0,57.0,93,29.92,1.0,SE,16.1,-,0.15,Rain-Thunderstorm,Thunderstorms and Rain,140,2014-01-13 18:53:00
1:53 PM,60.1,57.9,93,29.86,1.0,SSE,13.8,-,0.19,Rain,Light Rain,150,2014-01-13 19:53:00
2:53 PM,59.0,57.9,96,29.88,1.0,SSE,9.2,-,0.00,,Overcast,160,2014-01-13 20:53:00
3:53 PM,60.1,57.9,93,29.88,1.0,SSE,10.4,-,N/A,,Overcast,160,2014-01-13 21:53:00
4:53 PM,59.0,57.0,93,29.88,2.0,SSE,10.4,-,N/A,,Overcast,150,2014-01-13 22:53:00
5:53 PM,60.1,57.0,90,29.88,2.0,South,8.1,-,N/A,,Overcast,170,2014-01-13 23:53:00
6:53 PM,59.0,57.0,93,29.90,2.0,South,4.6,-,N/A,,Overcast,190,2014-01-14 00:53:00
7:53 PM,60.1,57.9,93,29.91,2.0,SSW,5.8,-,N/A,,Overcast,210,2014-01-14 01:53:00
8:00 PM,60.1,57.9,93,29.92,4.0,WSW,4.6,-,N/A,,Overcast,240,2014-01-14 02:00:00
8:53 PM,60.1,57.9,93,29.92,4.0,Calm,Calm,-,N/A,,Overcast,0,2014-01-14 02:53:00
9:26 PM,59.0,57.0,93,29.93,1.8,WSW,3.5,-,N/A,,Overcast,250,2014-01-14 03:26:00
9:44 PM,59.0,57.9,96,29.93,0.5,West,3.5,-,N/A,Fog,Fog,270,2014-01-14 03:44:00
9:53 PM,59.0,57.9,96,29.93,0.5,West,4.6,-,N/A,Fog,Fog,270,2014-01-14 03:53:00
10:41 PM,59.0,57.0,93,29.94,0.2,WNW,5.8,-,N/A,Fog,Fog,300,2014-01-14 04:41:00
10:53 PM,59.0,57.0,93,29.94,0.2,West,5.8,-,N/A,Fog,Fog,280,2014-01-14 04:53:00
11:04 PM,59.0,57.0,93,29.93,0.5,West,5.8,-,N/A,Fog,Fog,280,2014-01-14 05:04:00
11:16 PM,59.0,57.0,93,29.93,1.5,WNW,6.9,-,N/A,,Overcast,290,2014-01-14 05:16:00
11:24 PM,59.0,57.0,93,29.93,3.0,WNW,8.1,-,N/A,,Mostly Cloudy,300,2014-01-14 05:24:00
11:46 PM,59.0,57.0,93,29.93,9.0,WNW,11.5,-,N/A,,Scattered Clouds,300,2014-01-14 05:46:00
11:53 PM,57.9,55.9,93,29.94,10.0,NW,13.8,-,N/A,,Partly Cloudy,310,2014-01-14 05:53:00